Theta_e
300 294 288 291 294 295 295 294 293 300 301 301 298 299 302 306 305 305 308 315 317 320 324 328 330 333 334 336 336 337 336 337 338 338 337 335 334 337 337 339 339 339 337 336
294 290 295 295 295 293 294 291 291 296 296 296 298 298 301 304 305 306 306 308 313 318 321 324 328 330 331 332 334 335 336 337 338 339 339 336 335 335 338 339 339 339 339 338
291 293 297 293 292 291 290 289 291 291 293 294 294 295 299 302 303 305 307 308 309 310 314 320 322 326 330 331 332 333 335 336 338 339 339 337 338 337 336 337 338 339 340 339
292 296 294 292 289 291 287 293 293 290 288 284 292 287 296 300 299 300 302 304 306 309 310 311 314 319 320 326 331 334 334 335 336 338 337 336 333 332 334 336 338 339 340 339
288 292 292 290 289 292 289 294 292 291 288 289 288 285 291 298 296 299 300 301 304 306 308 309 311 313 314 319 320 322 327 332 334 335 336 336 335 334 335 335 337 338 339 339
288 297 295 293 294 293 294 292 291 291 289 279 286 287 290 294 294 297 300 300 301 302 304 305 306 306 307 312 314 315 314 314 321 331 334 334 334 334 333 334 334 336 337 336
288 287 295 296 291 293 292 289 281 279 280 278 288 285 288 296 295 296 296 298 299 300 301 302 302 303 303 303 305 307 309 310 313 318 325 331 333 333 333 334 334 333 333 332
282 279 288 295 291 288 289 289 282 276 277 280 287 282 287 295 298 297 296 297 298 299 300 301 302 302 303 304 306 307 307 305 308 312 317 323 327 330 330 332 333 333 333 333
283 283 294 295 294 293 288 285 290 283 281 281 283 287 291 293 293 294 294 296 297 300 301 302 303 304 304 305 306 306 307 308 309 310 312 317 323 325 327 329 331 331 331 329
286 281 289 293 295 294 291 293 283 284 277 276 281 283 284 289 291 293 294 296 298 300 301 303 303 303 304 305 306 306 306 305 306 307 309 310 315 318 319 319 319 321 322 323
285 285 284 289 287 287 288 287 287 286 284 279 277 281 291 291 293 293 295 296 297 299 300 301 303 304 304 305 304 304 303 303 303 303 304 305 305 306 308 310 313 313 314 314
286 283 282 284 290 293 292 288 287 282 280 283 283 282 294 293 295 295 295 296 298 299 300 301 302 303 304 303 303 302 302 302 300 300 301 301 301 302 304 305 306 307 308 309
285 282 278 280 284 289 287 289 290 289 288 283 280 282 292 292 294 294 295 297 298 298 299 301 301 301 301 301 301 301 301 300 298 298 299 299 299 300 301 301 301 302 303 303
287 282 279 276 278 284 284 287 289 288 283 283 284 285 288 290 292 295 296 297 297 298 298 299 299 299 300 300 299 299 299 299 298 296 297 297 297 297 298 297 297 297 297 298
285 279 280 281 281 282 283 284 284 286 287 283 286 286 289 292 292 293 295 296 296 296 297 297 296 296 296 296 297 297 298 298 297 295 295 295 296 296 295 294 294 294 294 294
286 278 280 277 281 281 279 282 284 284 284 285 286 286 293 293 292 292 292 293 293 293 293 294 293 293 292 292 292 292 293 295 295 294 293 294 293 293 292 292 291 291 291 291
282 280 278 275 279 279 276 279 282 284 286 286 283 288 291 289 289 290 292 293 291 291 292 292 292 292 291 290 290 290 290 291 292 292 291 291 291 290 290 289 290 289 289 290
281 279 279 275 276 270 278 283 283 283 285 286 287 287 288 289 291 292 293 291 290 290 291 291 291 290 290 290 289 288 288 288 290 290 290 290 289 289 289 288 287 288 288 288
283 281 276 273 273 277 279 280 281 280 281 286 285 286 288 289 289 290 292 291 291 291 291 291 291 289 288 288 287 285 286 287 287 288 288 288 288 287 287 286 286 287 287 286
281 282 278 275 270 269 277 282 285 286 276 286 287 288 286 287 282 287 291 291 291 291 290 289 288 288 287 286 284 283 284 284 285 285 284 285 286 286 286 286 286 286 285 285
275 276 273 274 272 276 282 284 286 275 278 286 287 287 286 284 287 290 291 290 290 289 288 288 287 285 285 284 283 282 282 282 283 282 283 283 284 284 285 285 285 284 283 282
275 274 273 275 272 269 285 283 278 284 289 286 287 287 286 287 289 288 289 288 288 287 287 285 283 283 283 283 281 280 280 282 281 280 280 281 282 283 283 283 283 282 282 281
274 279 277 277 277 284 285 286 289 290 288 288 288 288 287 287 287 287 287 287 286 285 283 282 281 280 281 282 280 278 280 279 278 277 277 278 280 281 281 281 281 282 281 280
280 283 278 279 282 283 285 287 288 288 287 288 288 286 286 285 286 284 284 284 283 282 281 280 279 278 279 280 279 278 278 278 275 275 276 278 278 279 280 281 281 281 281 280
282 281 279 279 282 284 285 286 287 287 286 285 285 285 285 285 284 283 282 281 280 279 279 278 277 277 277 278 277 277 276 275 274 274 275 277 278 279 279 279 280 280 281 281
282 280 278 278 284 283 284 286 287 285 285 285 284 284 283 282 282 281 279 279 278 277 277 276 276 275 275 275 275 275 274 273 271 272 275 276 276 277 277 277 278 281 281 282
Wind_Speed
17 13 22 25 23 20 17 15 19 15 8 18 23 22 20 18 8 13 14 14 14 15 15 13 14 14 14 14 15 16 16 16 13 11 10 10 11 9 9 9 12 12 12 13
16 23 22 20 22 23 24 17 18 7 5 10 15 21 20 18 17 13 12 14 13 12 12 11 12 15 16 16 16 16 17 17 15 10 9 8 9 8 9 9 10 12 12 13
25 13 21 19 20 24 23 20 14 11 8 10 10 20 20 20 18 18 15 13 12 13 14 12 13 13 14 16 16 15 15 17 16 15 9 9 9 9 9 10 9 11 13 13
20 27 19 20 22 20 24 19 11 6 16 9 9 9 23 22 20 15 14 15 16 16 14 13 13 12 13 12 11 14 14 13 13 14 11 14 11 10 9 9 9 10 13 14
17 21 24 23 21 21 16 16 13 12 8 3 9 8 15 16 12 13 12 13 15 15 15 16 13 10 9 5 6 9 10 12 13 12 13 11 13 10 8 9 11 11 10 13
9 11 23 25 19 17 7 14 8 9 8 7 20 17 10 14 11 12 9 5 5 6 6 7 8 8 9 7 6 6 10 11 10 12 13 15 15 13 10 11 9 8 8 8
8 11 16 17 20 19 19 20 7 7 8 11 13 16 17 9 1 4 3 3 4 1 4 6 6 5 4 5 5 6 8 11 11 12 14 15 16 15 14 12 8 8 8 8
11 7 18 19 22 17 24 22 8 11 11 13 5 11 15 10 11 4 2 3 3 7 6 5 8 8 8 7 6 6 7 9 9 10 12 12 13 9 9 10 8 8 8 7
4 5 20 23 17 18 25 22 16 7 3 6 10 10 3 5 4 4 4 6 8 8 8 9 8 7 7 7 7 7 7 7 7 8 7 9 7 7 7 8 5 6 4 3
3 3 3 19 17 15 19 20 11 6 8 7 10 13 6 10 12 8 10 12 12 11 12 11 9 7 6 6 7 7 6 6 5 4 4 4 6 6 6 3 4 5 4 5
3 5 2 5 10 15 10 16 13 14 9 8 7 6 3 13 13 16 15 12 9 10 10 9 8 8 7 6 6 7 7 7 6 5 4 3 3 2 3 4 4 5 4 5
5 5 8 2 6 10 18 16 20 9 10 7 2 5 7 14 14 15 12 8 7 7 7 7 7 7 8 8 7 6 5 5 5 5 4 3 2 2 1 2 2 1 4 3
2 2 4 4 4 4 10 14 19 17 8 10 6 7 10 9 11 8 7 7 7 5 8 8 8 9 8 9 8 8 6 5 3 4 4 3 3 3 3 3 2 2 2 2
3 3 3 4 6 5 5 5 7 16 7 8 11 11 13 10 7 4 6 7 6 7 7 8 9 10 10 9 10 10 9 6 6 5 4 4 4 4 3 2 2 2 1 2
3 2 2 5 4 5 7 4 3 9 10 9 11 11 13 5 6 4 3 4 4 6 8 9 9 9 10 10 11 10 9 7 6 6 6 6 4 5 5 4 4 4 3 3
5 3 2 3 3 2 3 3 2 1 1 6 4 7 6 8 1 3 4 5 7 9 9 8 8 9 10 12 11 11 10 9 6 7 8 6 5 4 4 4 4 4 4 4
6 3 3 4 6 2 4 9 12 9 8 6 8 7 4 2 1 3 7 9 10 11 10 10 10 9 9 9 10 10 11 10 9 7 8 6 6 6 5 4 5 5 6 5
5 3 3 2 2 3 4 2 4 7 5 8 7 4 3 3 3 4 5 7 8 9 10 9 9 9 9 8 7 9 9 9 9 9 9 8 6 8 6 6 6 6 5 7
4 3 2 3 2 8 1 3 1 4 2 10 9 2 6 4 1 4 8 7 6 6 6 7 7 8 8 8 8 8 9 8 7 7 7 9 8 9 8 8 8 7 7 7
1 2 2 2 3 3 2 3 4 2 4 4 6 9 7 3 3 8 6 5 4 5 6 7 8 8 7 7 8 8 8 8 7 7 8 9 9 9 10 10 8 7 7 8
3 3 6 5 4 6 7 5 3 5 3 7 6 7 6 2 3 4 1 3 3 4 7 7 8 8 8 7 8 8 8 8 8 9 10 10 9 9 9 10 8 6 6 6
6 6 4 5 5 10 6 4 6 3 7 6 4 2 2 3 2 3 4 4 5 8 8 7 9 7 7 7 7 8 8 7 7 8 9 9 9 8 7 8 7 5 6 7
5 8 2 8 7 4 5 7 4 2 3 3 3 5 5 6 8 7 6 5 6 6 6 5 7 9 8 6 6 10 9 9 9 8 9 9 8 8 7 8 8 6 6 7
6 7 5 1 10 14 10 9 7 5 5 4 4 5 4 8 4 4 5 6 6 5 6 5 7 9 9 6 6 7 9 9 8 9 9 9 8 8 7 6 6 7 7 7
6 8 8 12 16 11 13 12 12 9 5 4 3 3 6 5 5 4 4 4 5 5 4 5 7 9 10 8 7 6 7 7 8 8 8 8 7 8 7 7 7 7 8 9
14 14 13 10 8 10 2 5 8 10 11 7 6 5 4 5 5 3 4 3 4 5 5 6 7 8 9 8 9 7 4 5 6 9 7 6 7 6 7 7 8 13 18 20
Wind_Direction
202 211 214 208 215 226 221 217 228 228 191 211 239 253 240 248 200 244 237 235 224 223 225 199 206 203 207 204 207 205 202 202 198 201 199 207 210 208 215 219 216 215 213 208
210 226 224 226 221 225 231 227 216 202 14 229 226 240 257 257 255 232 239 238 240 239 236 211 206 204 210 210 208 208 211 205 208 205 206 202 211 224 227 212 217 217 214 215
221 226 222 226 228 215 224 223 211 184 196 256 267 245 232 248 253 258 246 246 253 237 239 231 211 223 220 214 220 219 215 213 210 214 210 195 220 211 209 220 219 216 213 213
234 226 206 209 221 214 218 217 223 162 164 218 232 257 222 233 236 228 240 238 241 235 233 247 248 225 222 231 228 230 229 229 219 209 213 207 211 212 219 212 216 214 210 212
231 215 210 204 213 210 228 202 187 183 194 234 199 256 246 263 246 234 235 238 241 238 246 246 239 237 261 252 216 236 241 234 234 228 211 213 217 220 223 219 212 209 206 210
253 303 201 210 215 211 190 167 179 220 211 250 223 221 234 237 225 245 255 266 257 260 285 299 296 298 283 284 264 245 245 243 244 237 228 225 221 223 226 226 209 204 201 203
230 233 221 211 193 190 180 161 162 183 199 233 202 225 235 209 344 302 323 74 13 16 325 331 317 312 302 323 325 293 264 256 239 234 232 226 227 231 232 231 226 203 204 198
210 199 218 196 193 182 192 184 170 193 192 232 202 219 231 236 261 171 354 333 355 20 5 3 357 353 347 338 327 319 299 271 262 249 243 243 239 236 238 238 234 223 226 211
262 246 190 183 188 193 198 207 217 254 42 223 171 221 243 185 199 168 81 64 50 38 27 29 24 12 360 356 354 345 335 315 302 299 272 267 263 273 260 255 260 253 251 224
302 319 261 183 198 197 200 197 190 226 181 210 183 210 198 181 156 136 102 91 69 54 46 41 39 29 26 10 360 6 5 3 347 332 317 305 292 269 263 277 260 251 255 227
82 270 134 213 198 181 189 199 206 214 235 215 192 207 2 127 135 121 107 89 69 54 40 38 32 30 27 23 18 15 15 11 18 11 17 16 41 357 311 273 242 237 231 222
54 297 223 215 310 214 200 195 202 204 200 243 285 95 106 97 112 112 105 93 74 72 57 41 33 19 22 19 15 14 17 22 14 358 358 10 1 325 266 255 263 270 232 219
15 35 290 112 87 346 216 209 204 229 249 212 172 129 133 112 125 101 57 49 71 61 30 22 26 22 16 10 5 2 1 2 351 342 338 338 332 326 324 323 326 325 327 290
316 65 340 15 9 333 132 197 244 208 211 204 213 135 169 148 133 60 26 17 17 7 20 22 22 12 8 8 5 4 352 350 327 315 306 300 294 283 259 235 241 258 281 267
9 120 108 88 83 43 2 123 11 224 223 234 210 231 166 109 32 11 342 16 18 28 34 26 16 10 6 6 3 2 353 342 323 307 304 299 297 297 301 314 317 310 279 255
357 76 339 55 27 152 149 243 163 170 241 264 271 280 277 75 327 350 23 33 45 47 42 36 26 13 2 356 354 348 346 342 332 308 293 287 280 279 270 284 281 280 274 269
358 357 334 124 350 295 228 209 198 180 195 236 231 268 141 247 346 17 20 37 33 25 25 21 15 9 2 353 345 337 334 330 328 307 296 289 282 278 257 247 248 241 247 252
334 331 352 28 309 221 57 355 347 252 235 223 244 189 156 207 114 22 67 60 35 15 7 5 357 349 349 342 340 329 326 323 324 321 316 312 297 282 273 253 248 249 241 234
274 316 55 319 290 321 39 96 169 208 256 216 227 203 156 128 292 144 110 59 37 10 349 341 339 333 329 334 340 325 319 320 318 318 320 317 308 294 284 270 262 249 237 233
359 248 294 183 263 246 31 91 339 245 261 136 156 142 131 148 223 113 109 26 3 353 343 335 331 326 327 341 333 322 319 318 321 331 318 310 305 296 287 279 268 256 245 247
124 182 227 226 270 273 254 200 341 193 104 106 119 122 124 92 352 57 6 307 308 323 329 329 326 321 320 327 328 319 320 317 332 323 318 313 304 292 286 288 283 268 246 248
190 184 196 210 221 258 225 102 208 93 136 148 138 129 297 261 233 240 269 280 295 311 323 335 321 316 321 320 322 317 314 328 319 312 308 305 305 305 297 282 273 255 248 252
248 214 224 207 216 265 191 254 234 84 132 207 256 280 264 243 213 222 257 271 288 300 304 307 310 310 308 316 319 312 319 327 323 315 307 302 303 298 288 283 276 263 242 247
242 235 233 170 237 240 239 236 230 206 231 243 263 284 256 251 231 236 257 259 261 275 291 307 305 295 297 309 302 293 311 318 311 302 310 310 303 299 293 281 273 264 249 250
238 159 211 248 266 278 263 243 240 234 219 228 217 210 230 252 241 233 248 252 266 282 287 289 290 287 291 307 306 309 310 316 310 306 299 296 293 295 291 277 271 269 258 257
208 221 212 221 223 209 280 259 204 226 224 208 198 223 218 225 245 252 256 259 275 289 306 292 289 289 291 300 298 294 289 304 297 299 297 300 299 289 289 290 288 271 267 269